Weather in Tiinsk

Russia / Ulyanovsk Oblast     54°23′33″N   49°38′40″E
temp.,
°C
wind,
m/s
gust,
m/s
humid.,
%
clouds,
%
prec.,
mm/h
press.,
hPa
HPBL,
m
9 march, tue
tue901:00−7wnw599597 0.8 1003400
04:00−11wnw369590 1.1 100696
07:00−15w34960 0.0 100854
10:00−12w24941 0.0 1010154
13:00−8w228837 0.0 1010311
16:00−8w229061 0.0 1009299
19:00−13nw339661 0.0 100939
22:00−16nw339746 0.0 101036
10 march, wed
wed1001:00−16nw339835 0.0 101073
04:00−15nw5109668 0.1 1010288
07:00−17nw51195100 0.1 1011363
10:00−17nnw61192100 0.1 1013486
13:00−17nnw61091100 0.1 1015546
16:00−17nnw61092100 0.1 1016590
19:00−19nnw51290100 0.1 1019578
22:00−22nnw4119480 0.1 1021297
11 march, thu
thu1101:00−24nnw4109616 0.0 1022192
04:00−26nw489811 0.0 1023134
07:00−26nw489941 0.0 1024130
10:00−21wnw489557 0.0 1025301
13:00−16wnw589294 0.0 1025459
16:00−15nw479197 0.1 1025483
19:00−18wnw359897 0.0 1026107
22:00−18wnw369989 0.0 1027105
12 march, fri
fri1201:00−18wnw359975 0.0 102984
04:00−18wnw349864 0.0 102954
07:00−18wnw34960 0.0 103162
10:00−13wnw47900 0.0 1032231
13:00−10wnw47860 0.0 1032342
16:00−10w488718 0.0 1032365
19:00−13w499063 0.0 1032185
22:00−14w488963 0.0 1033160
13 march, sat
sat1301:00−15w388779 0.0 1034157
04:00−16w378979 0.0 1034117
07:00−16w339094 0.0 103564
10:00−13wsw358687 0.0 1035204
13:00−9wsw358565 0.0 1035294
16:00−8sw358756 0.0 1033355
19:00−12ssw369512 0.0 103298
22:00−14ssw48957 0.0 1032138